Home   Weather   Addis Ababa   Past weeks
Flag for Ethiopia

Past Weather in Addis Ababa, Ethiopia — Yesterday and Last 2 Weeks

Now
61 °F

Scattered clouds.


Feels Like: 61 °F
Forecast: 76 / 50 °F
Wind: 6 mph from East

Location: Addis Ababa Airport

Current Time: May 25, 2019 at 8:14:42 am

Latest Report: May 25, 2019 at 7:00 am


Visibility: N/A

Pressure: 30.36 "Hg (22.99 "Hg at 2354m altitude)

Humidity: 55%

Dew Point: 45 °F

Location of Addis AbabaLocation

Past Weather in Addis Ababa — Graph

°F

Addis Ababa Temperature Yesterday

Maximum temperature yesterday: 73 °F (at 4:00 pm)
Minimum temperature yesterday: 59 °F (at 3:00 am)
Average temperature yesterday: 67 °F

High & Low Weather Summary for the Past Weeks

 TemperatureHumidityPressure
High84 °F (May 14, 2:00 pm)100% (May 20, 3:00 pm)30.42 "Hg (May 20, 3:00 pm)
Low55 °F (May 20, 8:00 am)17% (May 10, 3:00 pm)30.18 "Hg (May 10, 10:00 am)
Average68 °F51%30.28 "Hg
* Reported May 10 7:00 am — May 25 7:00 am, Addis Ababa. Weather by CustomWeather, © 2019

Note: Actual official high and low records may vary slightly from our data, if they occured in-between our weather recording intervals... More about our weather records

Advertising

Addis Ababa Weather History for the Previous 24 Hours

Scroll right to see more
 ConditionsComfort  
Time TempWeatherWind HumidityBarometerVisibility
7:00 am
Sat, May 25
61 °FScattered clouds.6 mph55%30.36 "HgN/A
6:00 am59 °FPassing clouds.5 mph51%30.33 "HgN/A
3:00 am61 °FPassing clouds.9 mph42%30.30 "HgN/A
2:00 am61 °FPassing clouds.12 mph59%30.33 "HgN/A
1:00 am61 °FPassing clouds.12 mph63%30.36 "HgN/A
12:00 am61 °FPassing clouds.9 mph63%30.36 "HgN/A
9:00 pm
Fri, May 24
64 °FPassing clouds.14 mph52%30.36 "HgN/A
8:00 pm64 °FPassing clouds.12 mph56%30.33 "HgN/A
6:00 pm72 °FScattered clouds.16 mph36%30.27 "HgN/A
4:30 pm73 °FScattered clouds.16 mph41%30.27 "HgN/A
4:00 pm73 °FPartly sunny.17 mph38%30.27 "HgN/A
3:00 pm72 °FPartly sunny.22 mph44%30.30 "HgN/A
2:00 pm68 °FScattered clouds.9 mph69%30.30 "HgN/A
1:00 pm72 °FPartly sunny.18 mph50%30.33 "HgN/A
12:00 pm70 °FPartly sunny.14 mph53%30.36 "HgN/A
11:00 am68 °FScattered clouds.14 mph53%30.36 "HgN/A
10:00 am68 °FPartly sunny.12 mph53%30.36 "HgN/A
9:00 am68 °FPassing clouds.12 mph53%N/AN/A
Weather by CustomWeather, © 2019

See weather overview